IST,Max TemperatureF,Mean TemperatureF,Min TemperatureF,Max Dew PointF,MeanDew PointF,Min DewpointF,Max Humidity, Mean Humidity, Min Humidity, Max Sea Level PressureIn, Mean Sea Level PressureIn, Min Sea Level PressureIn, Max VisibilityMiles, Mean VisibilityMiles, Min VisibilityMiles, Max Wind SpeedMPH, Mean Wind SpeedMPH, Max Gust SpeedMPH,PrecipitationIn, CloudCover, Events, WindDirDegrees
2013-5-1,57,50,44,48,43,39,94,76,51,30.33,30.30,30.27,19,7,3,14,9,,0.02,5,Rain,257
2013-5-2,57,48,40,46,44,39,93,79,53,30.31,30.21,30.15,12,6,6,17,7,,0.00,6,Rain,199
2013-5-3,57,52,48,50,47,45,100,82,56,30.15,30.00,29.89,19,6,2,30,15,40,0.01,6,Rain,210
2013-5-4,57,50,43,54,46,39,100,84,56,30.01,29.95,29.86,19,6,2,26,14,,0.00,5,Rain,237
2013-5-5,60,56,51,52,49,46,100,82,57,30.07,30.04,30.01,19,6,2,17,13,,0.02,6,Rain,195
2013-5-6,63,56,50,50,48,46,94,76,51,30.06,30.01,29.95,16,7,6,16,10,,0.00,5,Rain,142
2013-5-7,61,56,50,52,50,46,100,83,53,29.99,29.83,29.56,12,6,4,24,12,36,0.28,6,Rain,111
2013-5-8,54,50,46,52,47,41,100,89,76,29.53,29.41,29.30,7,5,2,33,17,48,0.20,6,Rain,199
2013-5-9,54,50,45,50,45,41,100,83,67,29.68,29.40,29.15,19,6,3,33,25,44,0.08,6,Rain,246
2013-5-10,54,49,44,50,44,36,100,80,47,29.79,29.73,29.68,19,6,2,27,20,38,0.08,5,Rain,241
2013-5-11,53,49,45,48,42,39,100,78,56,30.04,29.89,29.77,16,7,5,31,17,47,0.04,5,Rain,272
2013-5-12,54,50,46,52,48,39,100,90,67,30.04,29.94,29.89,19,4,1,26,15,,0.16,6,Rain,245
2013-5-13,51,46,42,43,40,37,93,77,62,29.95,29.88,29.80,16,7,6,28,17,38,0.08,4,Rain,259
2013-5-14,53,46,40,45,40,37,93,77,56,29.80,29.57,29.42,19,7,6,28,12,37,0.02,4,Rain,278
2013-5-15,52,46,41,43,39,34,87,75,54,29.62,29.59,29.53,19,7,6,22,13,38,0.12,4,Rain,310
2013-5-16,52,47,42,45,42,39,93,84,62,29.59,29.48,29.44,19,7,3,13,7,,0.16,6,Rain,202
2013-5-17,60,50,39,46,42,37,100,78,40,29.95,29.81,29.59,19,7,5,17,7,25,0.04,4,Rain,359
2013-5-18,55,48,40,48,45,41,100,86,69,29.98,29.90,29.77,19,6,4,21,10,32,0.01,6,Rain,313
2013-5-19,58,52,47,52,48,46,100,84,65,30.06,29.92,29.77,19,7,6,9,4,,0.00,6,,194
2013-5-20,57,53,49,52,49,46,100,88,69,30.21,30.12,30.06,16,6,2,17,9,,0.00,6,Rain,307
2013-5-21,59,54,49,50,47,45,94,80,61,30.27,30.23,30.18,16,7,6,21,11,,0.00,5,,303
2013-5-22,57,52,46,48,44,39,94,76,52,30.34,30.30,30.27,19,7,6,21,11,,0.00,4,,298
2013-5-23,56,49,42,43,38,34,87,64,34,30.30,30.24,30.18,16,6,6,21,12,,0.00,4,,305
2013-5-24,58,50,43,43,39,36,87,65,43,30.21,30.18,30.15,19,7,6,22,13,36,0.00,4,,323
2013-5-25,57,51,45,51,47,43,94,84,55,30.25,30.19,30.18,19,7,6,12,5,,0.04,6,Rain,219
2013-5-26,61,54,48,52,49,46,100,84,63,30.19,30.02,29.74,16,6,4,21,8,,0.01,6,Rain,178
2013-5-27,54,50,46,50,45,43,100,81,59,29.74,29.52,29.47,16,6,3,20,14,,0.12,5,Rain,232
2013-5-28,57,51,45,48,46,43,100,82,62,29.74,29.61,29.53,16,7,4,22,12,,0.00,4,Rain,271
2013-5-29,68,57,46,52,47,43,100,72,40,30.09,29.89,29.74,12,6,6,17,10,,0.00,3,,328
2013-5-30,62,54,46,52,48,43,94,77,55,30.21,30.14,30.09,19,7,6,18,11,,0.00,3,,292
2013-5-31,60,54,48,54,48,41,100,79,48,30.36,30.25,30.18,12,6,2,18,10,,0.00,5,Rain,282